Regional Weather Roundup
Issued by NWS Charleston, WV

Home | Current Version | Previous Version | Graphics & Text | Print | Product List | Glossary On
Versions: 1 2 3 4 5 6 7 8 9 10 11 12 13 14 15 16 17 18 19 20 21 22 23 24 25 26 27 28 29 30 31 32 33 34 35 36 37 38 39 40 41 42 43 44 45 46 47 48 49
000
ASUS41 KRLX 261510
RWRRLX
West Virginia Regional Weather Roundup
National Weather Service Charleston WV
1000 AM EST MON JAN 26 2015

Note: "fair" indicates few or no clouds below 12,000 feet with no
significant weather and/or obstructions to visibility.

WVZ003-261600-
Northern Panhandle of West Virginia

CITY           SKY/WX    TMP DP  RH WIND       PRES   REMARKS
WHEELING       SNOW      25  22  88 N8        29.70R VSB 1/2
$$

WVZ009-261600-
Northwest West Virginia

CITY           SKY/WX    TMP DP  RH WIND       PRES   REMARKS
PARKERSBURG    LGT SNOW  27  24  89 N10       29.75R VSB 3/4
$$

WVZ006-261600-
Western West Virginia

CITY           SKY/WX    TMP DP  RH WIND       PRES   REMARKS
HUNTINGTON     LGT SNOW  27  25  92 NW9G18    29.78R FOG
$$

WVZ015-261600-
West Central West Virginia

CITY           SKY/WX    TMP DP  RH WIND       PRES   REMARKS
CHARLESTON     LGT RAIN  36  34  92 NW12G18   29.69R VSB 1
$$

WVZ022-031-261600-
North Central West Virginia

CITY           SKY/WX    TMP DP  RH WIND       PRES   REMARKS
CLARKSBURG     LGT RAIN  37  37 100 CALM      29.65R FOG
MORGANTOWN     LGT RAIN  36  30  79 E8        29.66S
$$

WVZ025-035-042-045-261600-
Southern West Virginia

CITY           SKY/WX    TMP DP  RH WIND       PRES   REMARKS
BECKLEY        CLOUDY    39  33  79 CALM      29.62R
LOGAN          LGT RAIN  37  37 100 NW9       29.67R
BLUEFIELD      CLOUDY    38  32  79 W6        29.63R
LEWISBURG      CLOUDY    36  35  96 N5        29.65R FOG
$$

WVZ047-261600-
Northern Mountains of West Virginia

CITY           SKY/WX    TMP DP  RH WIND       PRES   REMARKS
ELKINS         LGT RAIN  35  35 100 SW3       29.64S FOG
$$

WVZ052-261600-
Eastern Panhandle of West Virginia

CITY           SKY/WX    TMP DP  RH WIND       PRES   REMARKS
MARTINSBURG    LGT SNOW  30  26  85 N8        29.80R VSB 3/4
PETERSBURG     LGT SNOW  33  33  99 N6        29.75R
$$


USA.gov is the U.S. government's official web portal to all federal, state and local government web resources and services.